This demonstration page uses our WeatherBlox Daily Observations layout. Learn more.

Left ArrowRight Arrow

Hourly Observations for February 20, 2015

Temp ( °F °C ) Dew Point ( °F °C ) Humidity (%) Winds ( mph kmh ) Pressure ( in mb ) Visibility ( mi km ) Precip ( " mm )
7:15 am 07:15 Mostly Cloudy 27 -3 16 -9 64 64 Calm 29.97 1015 10 16 0.00 0.00
7:35 am 07:35 Mostly Sunny 27 -3 16 -9 64 64 Calm 29.97 1015 10 16 0.00 0.00
7:55 am 07:55 Partly Cloudy 27 -3 16 -9 64 64 Calm 29.97 1015 10 16 0.00 0.00
8:15 am 08:15 Mostly Cloudy 27 -3 18 -8 69 69 SSW 3 6 29.97 1015 10 16 0.00 0.00
8:55 am 08:55 Partly Cloudy 28 -2 18 -8 64 64 SSW 3 6 29.97 1015 10 16 0.00 0.00
9:15 am 09:15 Sunny 30 -1 18 -8 59 59 SSW 5 7 29.97 1015 10 16 0.00 0.00
11:55 am 11:55 Sunny 39 4 21 -6 48 48 WSW 3 6 29.88 1012 10 16 0.00 0.00
12:15 pm 12:15 Sunny 39 4 21 -6 48 48 Calm 29.88 1012 10 16 0.00 0.00
12:35 pm 12:35 Sunny 39 4 21 -6 48 48 Calm 29.85 1011 10 16 0.00 0.00
12:55 pm 12:55 Sunny 43 6 25 -4 49 49 Calm 29.85 1011 10 16 0.00 0.00
1:35 pm 13:35 Sunny 46 8 27 -3 46 46 NNW 5 7 29.80 1009 10 16 0.00 0.00
1:55 pm 13:55 Sunny 48 9 27 -3 43 43 NE 6 9 29.80 1009 10 16 0.00 0.00
2:15 pm 14:15 Sunny 48 9 27 -3 43 43 NNE 9 15 29.80 1009 10 16 0.00 0.00
2:35 pm 14:35 Sunny 50 10 27 -3 40 40 NNE 13 20 29.77 1008 10 16 0.00 0.00
2:55 pm 14:55 Sunny 48 9 27 -3 43 43 NNE 13 20 29.80 1009 10 16 0.00 0.00
3:35 pm 15:35 Mostly Sunny 48 9 27 -3 43 43 NNE 10 17 29.80 1009 10 16 0.00 0.00
3:55 pm 15:55 Mostly Sunny 48 9 27 -3 43 43 NNE 10 17 29.83 1010 10 16 0.00 0.00
4:15 pm 16:15 Partly Cloudy 46 8 28 -2 50 50 NNE 7 11 29.83 1010 10 16 0.00 0.00
4:35 pm 16:35 Cloudy 46 8 28 -2 50 50 NNE 5 7 29.83 1010 10 16 0.00 0.00
4:55 pm 16:55 Cloudy 46 8 28 -2 50 50 NNE 6 9 29.83 1010 10 16 0.00 0.00
5:15 pm 17:15 Mostly Cloudy 46 8 27 -3 46 46 NNE 14 22 29.83 1010 10 16 0.00 0.00
5:35 pm 17:35 Mostly Cloudy 45 7 27 -3 49 49 NNE 10 17 29.83 1010 10 16 0.00 0.00
5:55 pm 17:55 Cloudy 45 7 27 -3 49 49 NNE 7 11 29.83 1010 10 16 0.00 0.00
6:15 pm 18:15 Cloudy 43 6 27 -3 53 53 N 7 11 29.88 1012 10 16 0.00 0.00
6:35 pm 18:35 Cloudy 41 5 27 -3 57 57 N 6 9 29.88 1012 10 16 0.00 0.00
6:55 pm 18:55 Cloudy 43 6 28 -2 57 57 N 6 9 29.91 1013 10 16 0.00 0.00
7:15 pm 19:15 Cloudy 43 6 28 -2 57 57 N 12 19 29.91 1013 10 16 0.00 0.00
7:35 pm 19:35 Cloudy 41 5 32 0 70 70 N 8 13 29.91 1013 10 16 0.00 0.00
7:55 pm 19:55 Cloudy 41 5 32 0 70 70 N 6 9 29.91 1013 10 16 0.00 0.00
8:15 pm 20:15 Cloudy 39 4 30 -1 70 70 Calm 29.88 1012 10 16 0.00 0.00
8:35 pm 20:35 Mostly Cloudy 37 3 30 -1 75 75 Calm 29.91 1013 10 16 0.00 0.00
8:55 pm 20:55 Clear 37 3 30 -1 75 75 Calm 29.94 1014 10 16 0.00 0.00
9:15 pm 21:15 Partly Cloudy 36 2 30 -1 81 81 Calm 29.91 1013 10 16 0.00 0.00
9:35 pm 21:35 Mostly Cloudy 34 1 28 -2 81 81 Calm 29.94 1014 10 16 0.00 0.00
9:55 pm 21:55 Mostly Cloudy 37 3 30 -1 75 75 WSW 6 9 29.94 1014 10 16 0.00 0.00
10:15 pm 22:15 Cloudy 37 3 30 -1 75 75 WSW 6 9 29.94 1014 10 16 0.00 0.00
10:35 pm 22:35 Cloudy 37 3 30 -1 75 75 WSW 6 9 29.94 1014 10 16 0.00 0.00
10:55 pm 22:55 Mostly Cloudy 37 3 30 -1 75 75 WSW 7 11 29.94 1014 10 16 0.00 0.00
11:15 pm 23:15 Mostly Clear 37 3 30 -1 75 75 WSW 6 9 29.94 1014 10 16 0.00 0.00
11:35 pm 23:35 Mostly Cloudy 36 2 28 -2 75 75 NW 8 13 29.97 1015 10 16 0.00 0.00
11:55 pm 23:55 Cloudy 36 2 30 -1 81 81 WNW 6 9 29.97 1015 10 16 0.00 0.00

Powered by AerisWeather